User: anonymous   Login
Location: Unspecified
(0.0000°N, 0.0000°E)
Time: 13:57:21
(UTC+00:00)
Language:

DELTA 2 R/B - Orbit

View from above orbital plane
View from above orbital plane
View from above satellite
View from above satellite

Ground track
Ground track

The orbit data is extracted from the following two-line orbital elements,

1 35939U 09052C   10043.72050712 0.02340000  00000-0  10415-2 0    02
2 35939  59.6184 295.9092 0244641   4.4629 355.5371 15.80287008    04
Epoch (UTC): 12 February 2010 17:17:31
Eccentricity: 0.0244641
inclination: 59.6184°
perigee height: 165 km
apogee height: 494 km
right ascension of ascending node: 295.9092°
argument of perigee: 4.4629°
revolutions per day: 15.80287008
mean anomaly at epoch: 355.5371°
orbit number at epoch: 0

The dashed part of the orbit path shows where the satellite is in the earth's shadow,  

DLR